TimeEST,TemperatureF,Dew PointF,Humidity,Sea Level PressureIn,VisibilityMPH,Wind Direction,Wind SpeedMPH,Gust SpeedMPH,PrecipitationIn,Events,Conditions,WindDirDegrees,DateUTC
12:51 AM,12.0,5.0,73,30.13,-9999.0,Calm,Calm,-,N/A,,Unknown,0,2014-02-13 05:51:00
1:51 AM,12.9,7.0,77,30.12,-9999.0,Calm,Calm,-,N/A,,Unknown,0,2014-02-13 06:51:00
2:51 AM,15.1,7.0,70,30.10,-9999.0,SW,3.5,-,N/A,,Unknown,220,2014-02-13 07:51:00
3:51 AM,15.1,7.0,70,30.09,-9999.0,Calm,Calm,-,N/A,,Unknown,0,2014-02-13 08:51:00
4:51 AM,12.0,5.0,73,30.07,-9999.0,Calm,Calm,-,N/A,,Unknown,0,2014-02-13 09:51:00
5:51 AM,8.1,3.9,83,30.06,-9999.0,SSW,3.5,-,N/A,,Unknown,200,2014-02-13 10:51:00
6:51 AM,12.0,8.1,84,30.05,-9999.0,Calm,Calm,-,N/A,,Unknown,0,2014-02-13 11:51:00
7:51 AM,15.1,9.0,77,30.05,-9999.0,Calm,Calm,-,N/A,,Unknown,0,2014-02-13 12:51:00
8:51 AM,18.0,10.9,74,30.03,-9999.0,Calm,Calm,-,N/A,,Unknown,0,2014-02-13 13:51:00
9:51 AM,19.9,15.1,81,29.99,-9999.0,ESE,11.5,-,N/A,,Unknown,120,2014-02-13 14:51:00
10:51 AM,19.9,12.9,74,29.97,-9999.0,ESE,13.8,-,N/A,,Unknown,120,2014-02-13 15:51:00
11:51 AM,21.0,12.0,68,29.93,-9999.0,SE,11.5,-,N/A,,Unknown,140,2014-02-13 16:51:00
12:51 PM,21.9,10.9,63,29.88,-9999.0,SE,11.5,-,N/A,,Unknown,140,2014-02-13 17:51:00
1:51 PM,23.0,12.9,65,29.82,-9999.0,SSE,9.2,-,N/A,,Unknown,150,2014-02-13 18:51:00
2:51 PM,23.0,14.0,68,29.81,-9999.0,SE,4.6,-,N/A,,Unknown,140,2014-02-13 19:51:00
3:51 PM,24.1,12.0,60,29.78,-9999.0,SE,8.1,-,N/A,,Unknown,130,2014-02-13 20:51:00
4:51 PM,23.0,12.9,65,29.76,-9999.0,SE,8.1,-,N/A,,Unknown,130,2014-02-13 21:51:00
5:51 PM,23.0,12.9,65,29.74,-9999.0,SSE,3.5,-,N/A,,Unknown,150,2014-02-13 22:51:00
6:51 PM,23.0,14.0,68,29.69,-9999.0,SE,8.1,-,N/A,,Unknown,140,2014-02-13 23:51:00
7:51 PM,21.9,14.0,72,29.66,-9999.0,SE,8.1,-,N/A,,Unknown,140,2014-02-14 00:51:00
8:51 PM,21.0,14.0,74,29.65,-9999.0,SSE,3.5,-,N/A,,Unknown,160,2014-02-14 01:51:00
9:51 PM,21.0,14.0,74,29.62,-9999.0,SSE,4.6,-,N/A,,Unknown,150,2014-02-14 02:51:00
10:51 PM,21.9,10.0,60,29.60,-9999.0,Variable,4.6,-,N/A,,Unknown,0,2014-02-14 03:51:00
11:51 PM,19.9,16.0,85,29.57,-9999.0,Variable,5.8,-,0.01,,Unknown,0,2014-02-14 04:51:00